Location: Montichiari
(45.4167°N, 10.3833°E)
Time: 11:08:39
(UTC+00:00)

Daily predictions for brighter satellites

Satellite Brightness Start Highest point End
(mag) Time Altitude Azimuth Time Altitude Azimuth Time Altitude Azimuth
Cosmos 1452 Rocket 4.3 19:22:43 10° N 19:27:41 39° ENE 19:32:36 10° SE
Cosmos 1606 Rocket 3.7 19:26:41 10° N 19:30:57 58° ENE 19:35:13 10° SSE
Cosmos 1025 Rocket 3.0 19:26:59 10° S 19:31:14 77° E 19:35:31 10° NNE
Cosmos 2341 Rocket 4.3 19:26:42 10° N 19:32:58 57° ENE 19:39:14 10° SSE
ISS -2.3 19:29:57 10° W 19:33:06 41° NNW 19:36:15 10° NE
ASTEX 1 3.4 19:30:48 10° SSE 19:35:41 73° E 19:40:34 10° N
Okean 1-7 Rocket 3.8 19:33:11 10° S 19:37:40 82° W 19:42:14 10° N
Cosmos 1726 Rocket 3.7 19:34:53 10° N 19:39:10 59° E 19:43:25 10° SSE
ATLAS CENTAUR R/B 3.8 19:39:44 10° NNE 19:40:36 11° NNE 19:41:28 10° NE
Cosmos 1939 Rocket 3.3 19:37:54 10° S 19:41:43 60° W 19:45:35 10° NNW
Cosmos 2082 Rocket 2.6 19:38:18 10° S 19:43:34 41° ESE 19:48:51 10° NE
SAR-Lupe-4 4.3 19:40:39 10° S 19:44:11 54° W 19:47:44 10° NNW
Cosmos 2278 3.8 19:39:30 10° NNW 19:45:15 89° WSW 19:50:57 10° SSE
Meteor 1-23 Rocket 4.4 19:39:50 10° SSW 19:45:25 80° W 19:51:06 10° N
Cosmos 1656 3.7 19:42:11 10° NNW 19:47:40 70° ENE 19:53:09 10° SSE
Meteor 1-4 Rocket 3.8 19:44:35 10° NNE 19:47:40 26° ENE 19:50:32 11° SE
YAOGAN 6 2.9 19:51:03 10° S 19:54:31 65° W 19:58:02 10° NNW
Cosmos 1697 Rocket 2.9 19:50:44 10° NNW 19:56:18 60° ENE 20:01:29 12° SE
MOS 1-B Rocket 4.2 19:51:30 10° SSE 19:57:25 73° ENE 20:04:18 10° NNW
COSMOS 2487 2.4 19:53:53 10° SSW 19:57:26 73° ESE 20:01:01 10° NNE
MetOp-A 4.2 19:55:37 10° SSE 20:00:57 74° ENE 20:06:19 10° N
USA 245 3.2 19:59:53 15° SE 20:01:16 27° ENE 20:03:16 10° N
Cosmos 2181 Rocket 4.0 19:56:03 10° S 20:02:19 69° E 20:08:32 10° NNE
Cosmos 2058 Rocket 3.1 19:59:19 10° N 20:03:46 80° E 20:08:14 10° SSE
Tiangong 2 1.5 20:03:10 10° W 20:06:15 46° S 20:08:37 15° ESE
Cosmos 2369 4.1 20:00:51 10° NNW 20:06:32 63° WSW 20:12:08 10° S
SL-16 R/B 4.0 20:04:51 10° N 20:09:06 21° NE 20:13:20 10° E
Terra 3.3 20:07:33 11° ESE 20:11:00 24° ENE 20:14:46 10° NNE
Cosmos 1833 Rocket 2.7 20:07:03 10° SSW 20:12:36 65° ESE 20:18:12 10° NNE
SL-08 RB Rocket 3.9 20:09:33 14° SSE 20:13:18 56° ENE 20:17:42 10° N
SL-24 DEB 4.2 20:15:03 11° S 20:19:31 79° E 20:24:12 10° N
Cosmos 1812 Rocket 4.4 20:15:38 10° N 20:19:48 36° ENE 20:22:40 18° SE
H-2A R/B 3.6 20:16:48 13° ESE 20:19:49 25° ENE 20:23:31 10° N
Lacrosse 5 rocket 3.1 20:18:07 10° NW 20:22:18 32° NNE 20:26:29 10° E
YAOGAN 11 4.1 20:19:13 13° SSE 20:23:00 87° WSW 20:27:25 10° NNW
Iridium 43 3.5 20:23:55 10° N 20:26:10 73° W 20:27:35 21° S
Cosmos 1626 Rocket 3.7 20:25:51 15° SSE 20:29:16 54° E 20:33:31 10° NNE
SL-8 Rocket 4.1 20:23:50 10° N 20:30:08 87° W 20:36:00 12° S
Cosmos 2228 3.4 20:26:37 10° NNW 20:30:52 62° W 20:34:45 12° S
SPOT 5 2.7 20:28:15 15° S 20:31:48 80° WSW 20:36:16 10° NNW
H-2A R/B 2.0 20:33:42 18° SSE 20:37:23 75° ENE 20:42:31 10° N
Cosmos 2366 rocket 3.9 20:31:53 10° N 20:38:04 81° E 20:42:59 17° SSE
Cosmos 1066 Rocket 4.2 20:34:32 10° S 20:40:05 86° W 20:45:50 10° N
ARGOS 3.5 20:38:38 13° S 20:43:22 65° WSW 20:48:48 10° NNW
Lacrosse 5 3.0 20:42:37 22° SE 20:43:24 23° ESE 20:47:20 10° ENE
Cosmos 1544 3.9 20:40:35 10° N 20:43:58 36° ENE 20:45:22 26° ESE
Cosmos 2360 Rocket 4.3 20:40:38 10° N 20:44:22 18° NE 20:48:06 10° E
Cosmos 1980 Rocket 2.2 20:40:40 10° NNW 20:46:22 87° ENE 20:50:05 22° SSE
Cosmos 1758 4.4 20:43:35 10° NNE 20:47:07 30° ENE 20:48:40 22° ESE
Meteor 2-14 Rocket 4.4 20:43:04 10° N 20:49:10 78° E 20:53:26 20° SSE
Cosmos 1420 Rocket 4.3 20:47:04 10° NNW 20:52:16 63° WSW 20:55:50 20° S
Cosmos 1271 Rocket 2.8 20:50:04 10° N 20:53:59 66° ENE 20:55:47 30° SSE
Cosmos 1269 Rocket 4.0 20:49:52 11° SSW 20:55:00 74° ESE 21:00:19 10° NNE
Cosmos 1048 Rocket 3.9 20:52:40 10° SSW 20:57:45 81° ESE 21:02:58 10° NNE
Cosmos 1842 3.4 20:57:18 30° SSE 20:58:56 55° E 21:02:49 10° NNE
Cosmos 2322 Rocket 2.9 20:53:54 10° NNW 20:59:21 44° ENE 21:02:50 21° ESE
Cosmos 1110 Rocket 4.4 20:56:53 10° NNW 21:02:02 51° ENE 21:04:47 25° SE
Cosmos 1602 Rocket 3.9 21:02:17 15° SSW 21:05:49 64° W 21:10:07 10° N
USA 229 DEB 3.9 20:59:01 10° NW 21:06:08 70° WSW 21:10:45 24° SSE
USA 229 3.9 20:59:07 10° NW 21:06:13 71° WSW 21:10:51 24° SSE
ISS -1.6 21:07:16 10° WNW 21:10:08 26° N 21:13:00 10° ENE
DMSP B5D2-2 4.0 21:05:40 10° NNE 21:10:59 81° ESE 21:14:37 21° S
NOSS 3-1 (A) 4.4 21:05:22 10° NW 21:12:43 60° NE 21:18:48 19° ESE
Meteor 2-16 Rocket 4.5 21:06:43 10° N 21:12:53 81° W 21:16:52 23° S
Orbus 7S? 3.7 21:09:16 10° NW 21:16:25 89° SW 21:17:58 36° SE
CZ-4C R/B 4.2 21:15:49 28° E 21:16:42 32° ENE 21:20:04 10° N
ATLAS CENTAUR R/B 1.2 21:16:43 10° NNW 21:20:23 62° NE 21:21:25 41° ESE
IGS 5A 3.4 21:21:01 36° S 21:22:41 79° W 21:26:52 10° NNW
Meteor 1-21 4.4 21:19:03 17° SSW 21:23:27 77° W 21:29:16 10° N
deb Chang Zheng 4 3.5 21:19:14 10° NNE 21:23:33 69° ESE 21:25:11 36° S
CZ-4 R/B 4.0 21:21:13 10° NNE 21:26:13 61° ESE 21:28:19 34° S
Timation 2 Rocket 4.5 21:20:49 10° SW 21:27:02 60° WNW 21:33:06 10° NNE
SME Rocket 4.3 21:25:36 23° ESE 21:27:20 31° ENE 21:30:49 10° N
Cosmos 2082 Rocket 3.8 21:22:36 10° WSW 21:27:44 34° NW 21:32:53 10° NNE
CARTOSAT-1 3.9 21:29:22 33° SSW 21:31:08 60° W 21:35:25 10° NNW
Cosmos 972 Rocket 3.9 21:26:33 10° NNW 21:31:43 71° ENE 21:33:38 37° SE
PSLV R/B 2.9 21:32:26 74° W 21:32:26 74° W 21:35:13 10° NNW
Cosmos 389 Rocket 2.3 21:33:03 10° NNW 21:36:32 80° W 21:37:01 62° S
Cosmos 1953 2.3 21:35:07 10° N 21:39:13 80° W 21:40:19 47° S
Cosmos 1697 Rocket 4.5 21:35:36 10° NW 21:39:47 22° W 21:43:14 13° SW
Cosmos 2251 Rocket 3.7 21:38:59 36° SSE 21:40:56 57° ESE 21:46:13 10° NNE
Tiangong 2 3.6 21:40:15 10° WSW 21:40:48 13° WSW 21:40:48 13° WSW
Terra 2.6 21:46:26 28° SSW 21:48:29 43° W 21:53:03 10° NNW
Cosmos 2239 Rocket 4.4 21:43:38 10° N 21:49:51 86° W 21:52:46 34° S
Nadezhda 3 Rocket 4.2 21:46:32 22° SSW 21:50:47 69° W 21:57:08 10° N
CZ-4B R/B 3.5 21:46:26 10° NNE 21:51:35 86° ESE 21:53:52 35° SSW
Cosmos 1470 2.7 21:48:00 10° N 21:52:01 79° E 21:52:40 60° SSE
SL-16 R/B 2.2 21:48:11 10° NNW 21:53:53 78° WSW 21:56:02 39° SSE
Cosmos 1758 Rocket 3.5 21:53:16 44° SSW 21:54:35 80° W 21:59:00 10° N
Cosmos 1707 3.0 21:55:04 50° ESE 21:55:13 50° E 21:58:59 10° NNE
H-2A R/B 3.2 21:53:55 27° SW 21:55:38 37° W 21:59:51 10° NNW
DELTA 2 DEB (DPAF) 4.2 21:55:55 47° S 21:57:09 75° WSW 22:01:39 10° NNW
Cosmos 2098 Rocket 3.9 21:53:23 10° N 21:58:13 55° E 22:00:17 36° SE
Cosmos 494 Rocket 3.9 21:56:32 35° SSW 21:58:45 89° ESE 22:03:58 10° NNE
Cosmos 1821 Rocket 4.1 21:54:32 10° NNW 22:00:49 74° W 22:03:49 33° S
Lacrosse 5 rocket 1.6 21:57:17 10° NW 22:01:55 67° SW 22:02:45 54° S
USA 32 4.1 22:14:07 46° SSE 22:15:31 65° E 22:20:44 10° N
H-2A R/B 4.3 22:14:46 10° WSW 22:17:26 14° W 22:20:07 10° NW
USA 267 3.7 22:11:31 10° ENE 22:17:32 38° SE 22:18:29 36° SSE
Cosmos 1727 Rocket 4.1 22:18:03 40° SSE 22:20:12 62° E 22:26:23 10° NNE
Cosmos 2322 3.9 22:16:28 10° NNW 22:22:06 65° ENE 22:24:12 38° SE
Cosmos 1605 Rocket 3.9 22:17:39 10° N 22:23:47 89° W 22:26:01 42° S
Lacrosse 5 2.0 22:21:40 15° WSW 22:25:57 74° NW 22:31:02 10° NE
NOSS 3-1 (C) 4.5 22:21:28 10° NW 22:28:44 49° WSW 22:32:02 33° S
Cosmos 2360 Rocket 2.1 22:23:34 10° NNW 22:29:17 85° ENE 22:31:04 46° SSE
Cosmos 1980 Rocket 4.3 22:26:39 10° WNW 22:29:32 14° W 22:31:51 11° WSW
Cosmos 1833 4.2 22:29:53 48° S 22:31:21 66° ESE 22:37:00 10° NNE
Cosmos 2084 Rocket 3.2 22:32:37 66° WSW 22:33:07 80° NW 22:37:04 10° NE
Cosmos 1733 4.4 22:30:59 10° NNW 22:34:24 31° W 22:34:44 31° WSW
Cosmos-2242 3.7 22:31:06 10° NNW 22:35:11 43° W 22:35:48 40° WSW
Cosmos 2219 4.2 22:36:42 29° ESE 22:37:15 30° ESE 22:42:03 10° NE
Cosmos 2173 Rocket 4.5 22:32:09 10° N 22:38:03 48° ENE 22:40:19 33° SE
Cosmos 1378 3.2 22:38:34 66° W 22:38:37 66° W 22:42:21 10° N
ALOS 2 2.5 22:40:00 66° SE 22:40:35 80° ENE 22:44:59 10° N
Cosmos 1153 Rocket 4.4 22:34:44 10° N 22:41:02 86° E 22:43:13 44° SSE
COSMOS 2428 3.2 22:37:23 10° NNW 22:43:02 54° ENE 22:45:30 32° ESE
Cosmos 2322 Rocket 3.3 22:38:15 10° NW 22:43:14 32° WSW 22:44:38 28° SW
SeaSat 1 2.6 22:45:04 45° SE 22:46:31 69° ENE 22:51:27 10° NNW
ISS -2.9 22:43:54 10° NW 22:47:04 48° NNE 22:47:04 48° NNE
SL-8 R/B 4.0 22:48:55 47° ESE 22:48:55 47° ESE 22:52:43 10° ENE
CZ-2C R/B 2.6 22:45:25 10° NNE 22:51:03 84° ESE 22:52:36 50° S
USA 234 4.1 22:47:16 10° E 22:53:31 49° NNE 22:59:46 10° NW
Cosmos 1992 Rocket 3.9 22:50:32 10° NNW 22:55:47 83° ENE 22:57:00 54° SSE
Cosmos 1459 Rocket 4.1 22:49:50 10° N 22:56:13 68° E 22:58:31 41° SSE
Cosmos 2221 2.7 22:52:48 10° N 22:57:04 57° ENE 22:57:30 54° ESE
Intercosmos 25 3.4 22:54:36 10° N 22:57:18 57° NNE 22:57:18 57° NNE
Meteor 2-5 Rocket 4.3 22:56:06 33° SW 22:58:35 56° WNW 23:04:25 10° N
ATLAS CENTAUR R/B 3.7 22:57:30 10° W 22:57:41 10° W 22:57:41 10° W
Okean 3 Rocket 3.9 22:59:11 50° ESE 22:59:35 51° E 23:04:01 10° NNE
SAR-Lupe-2 4.5 23:00:42 39° ENE 23:00:44 39° ENE 23:04:08 10° N
Meteor 2-17 Rocket 4.5 22:56:24 10° N 23:02:31 71° E 23:04:35 43° SSE
ATLAS 2AS CENTAUR R/B 3.2 22:55:33 10° NW 23:03:40 70° NE 23:08:53 22° SE
Cosmos 2219 Rocket 2.8 23:04:58 10° NNW 23:10:32 52° ENE 23:13:14 29° ESE
Cosmos 2333 Rocket 3.0 23:09:06 10° NNW 23:14:37 47° ENE 23:17:40 25° ESE
Cosmos 2297 Rocket 4.1 23:14:07 15° ESE 23:15:10 16° E 23:18:28 10° ENE
Cosmos 1184 Rocket 3.8 23:16:37 44° NE 23:16:37 44° NE 23:19:07 10° NNE
Cosmos 1076 Rocket 3.7 23:17:51 55° ESE 23:18:06 56° E 23:22:23 10° NNE
CZ-2C R/B 3.8 23:20:38 38° SW 23:21:56 44° W 23:27:25 10° NNW
Cosmos 1340 Rocket 2.7 23:22:19 76° ENE 23:22:19 76° ENE 23:26:10 10° NNE
Cosmos 2016 Rocket 4.0 23:16:58 10° N 23:23:23 77° E 23:25:41 42° SSE
Meteor 1-24 Rocket 4.2 23:21:16 36° SW 23:23:31 57° WNW 23:29:29 10° N
Cosmos 1908 3.2 23:22:04 10° N 23:26:00 79° ENE 23:26:00 79° ENE
Cosmos 1802 Rocket 3.9 23:21:46 10° N 23:28:03 84° W 23:30:03 46° S
Cosmos 2100 Rocket 4.0 23:22:14 10° NNW 23:28:21 67° W 23:30:16 44° SSW
ERBS 3.3 23:35:04 43° NE 23:35:04 43° NE 23:37:28 10° NE
Cosmos 2237 Rocket 3.0 23:28:58 10° NNW 23:34:25 47° ENE 23:37:49 22° ESE
SL-16 R/B 4.4 23:35:24 10° W 23:36:58 11° W 23:37:53 11° WSW
Cosmos 1726 3.0 23:34:11 10° N 23:37:46 40° ENE 23:38:01 39° E
SL-16 R/B 4.2 23:33:07 10° N 23:37:48 25° NE 23:42:26 10° ESE
Geosat 4.1 23:34:05 10° NE 23:39:04 60° ESE 23:39:55 52° SSE
Cosmos 1674 2.6 23:41:34 84° NW 23:41:34 84° NW 23:45:22 10° N
Cosmos 1140 Rocket 4.5 23:42:23 31° SE 23:43:25 33° ESE 23:48:04 10° NE
CZ-4B R/B 2.2 23:47:11 45° NNW 23:47:11 45° NNW 23:49:33 10° NNW
H-2A R/B 2.9 23:43:40 10° NNE 23:47:56 53° E 23:48:26 50° SE
Cosmos 1328 Rocket 4.1 23:44:52 10° N 23:49:14 53° ENE 23:50:11 44° ESE
Cosmos 1689 Rocket 3.2 23:51:50 42° NW 23:51:50 42° NW 23:54:03 10° NNW
Cosmos 2227 Rocket 2.9 23:51:40 35° SE 23:53:03 41° ESE 23:58:19 10° NE
Cosmos 1356 Rocket 3.2 23:54:55 77° SSE 23:55:08 81° E 23:59:15 10° NNE
